Hourly Data Report for October 19, 2014

All times are specified in Local Standard Time (LST). Add 1 hour to adjust for Daylight Saving Time where and when it is observed.

ARVIAT A
NUNAVUT

61°05'38.000" N
94°04'18.000" W
10.40 m
2300427
71174
YEK

Download Data

Hourly Data (October 2014)
Hourly Data Report for October 19, 2014
Temp Definition
°C
Dew Point Temp Definition
°C
Rel Hum Definition
%
Wind Dir Definition
10's deg

Wind Spd Definition
km/h
Visibility Definition
km
Stn Press Definition
kPa
Hmdx Definition


Wind Chill Definition


Weather Definition


TIME
00:00 Legend Double Dagger 0.4 -0.8 92 18 43 3.2 100.61     Rain,Snow
01:00 Legend Double Dagger 0.4 -0.3 95 18 43 2.8 100.54     Snow
02:00 Legend Double Dagger 0.2 -0.1 98 19 39 1.6 100.50     Snow
03:00 Legend Double Dagger 0.3 0.0 98 19 34 2.8 100.47     Snow
04:00 Legend Double Dagger 0.3 0.2 99 19 32 2.0 100.44     Snow
05:00 Legend Double Dagger 0.2 0.2 100 20 22 2.0 100.44     Snow
06:00 Legend Double Dagger 0.0 0.0 100 20 21 1.6 100.45   -5 Snow
07:00 Legend Double Dagger 0.0 0.0 100 21 21 1.6 100.48   -5 Snow
08:00 Legend Double Dagger -0.3 -0.4 99 21 22 14.5 100.50   -6 Snow
09:00 Legend Double Dagger -0.4 -0.5 99 21 18 9.7 100.51   -5 Snow
10:00 Legend Double Dagger -0.5 -0.6 99 20 17 9.7 100.53   -5 Snow
11:00 Legend Double Dagger -0.4 -0.5 99 20 17 16.1 100.60   -5 LegendNANA
12:00 Legend Double Dagger -0.2 -0.5 98 22 15 16.1 100.67   -5 LegendNANA
13:00 Legend Double Dagger -0.1 -0.4 98 22 11 16.1 100.69   -4 LegendNANA
14:00 Legend Double Dagger 0.0 -0.3 98 24 9 16.1 100.73   -3 LegendNANA
15:00 Legend Double Dagger 0.2 -0.1 98 23 5 16.1 100.75     LegendNANA
16:00 Legend Double Dagger 0.1 0.0 99 21 8 16.1 100.82     LegendNANA
17:00 Legend Double Dagger 0.0 -0.1 99 25 5 16.1 100.89   -2 LegendNANA
18:00 Legend Double Dagger 0.2 -0.1 98 29 9 16.1 100.98     LegendNANA
19:00 Legend Double Dagger 0.2 0.1 99 31 13 16.1 101.06     LegendNANA
20:00 Legend Double Dagger 0.2 -0.1 98 34 17 16.1 101.09     LegendNANA
21:00 Legend Double Dagger 0.0 -0.3 98 33 15 16.1 101.14   -4 LegendNANA
22:00 Legend Double Dagger -0.1 -0.5 97 33 18 16.1 101.20   -5 LegendNANA
23:00 Legend Double Dagger -0.2 -0.6 97 33 18 16.1 101.25   -5 LegendNANA

Notes on Data Quality.

Legend

  • E = Estimated
  • M = Missing
  • NA = Not Available
  • ‡ = Partner data that is not subject to review by the National Climate Archives
Date modified: